Location: ????????
(60.4333°N, 46.4710°E)
Time: 19:48:06
(UTC+00:00)

Cosmos 2333 - Pass Details

Date: 25 November 2020
Orbit: 831 x 864 km, 70.9° (Epoch: 16 January)

Event Time Altitude Azimuth Distance (km) Brightness Sun altitude
Rises 14:39:01 0° 231° (SW) 3,399 8.5 -17.8°
Reaches altitude 10° 14:41:29 10° 235° (SW) 2,462 7.6 -18.1°
Maximum altitude 14:47:06 66° 317° (NW) 918 4.5 -18.8°
Enters shadow 14:50:42 23° 35° (NE) 1,728 5.4 -19.2°
